| time (UTC) | temp F | wind direction | speed knots | gust knots | rain 1hr in | rain 24hr in | rain mn in | humidity % | barometer mb |
| 20260902231507 | 88 | 209 | 0.9 | 2.6 | 0.00 | 0.00 | 0.00 | 63 | 1012.7 |
| 20260902230150 | 88 | 234 | 0.9 | 3.5 | 0.00 | 0.00 | 0.00 | 60 | 1012.6 |
| 20260902224523 | 89 | 179 | 1.7 | 6.1 | 0.00 | 0.00 | 0.00 | 59 | 1012.8 |
| 20260902223114 | 90 | 148 | 1.7 | 4.3 | 0.00 | 0.00 | 0.00 | 59 | 1012.8 |
| 20260902221532 | 90 | 244 | 1.7 | 4.3 | 0.00 | 0.00 | 0.00 | 58 | 1012.6 |
| 20260902220104 | 91 | 236 | 0.9 | 3.5 | 0.00 | 0.00 | 0.00 | 57 | 1012.6 |
| 20260902214524 | 92 | 221 | 1.7 | 6.1 | 0.00 | 0.00 | 0.00 | 53 | 1013.0 |
| 20260902213105 | 92 | 244 | 1.7 | 3.5 | 0.00 | 0.00 | 0.00 | 55 | 1013.0 |
| 20260902211523 | 93 | 253 | 1.7 | 4.3 | 0.00 | 0.00 | 0.00 | 54 | 1012.8 |
| 20260902210106 | 93 | 233 | 0.9 | 3.5 | 0.00 | 0.00 | 0.00 | 56 | 1012.7 |
| 20260902204537 | 93 | 217 | 1.7 | 4.3 | 0.00 | 0.00 | 0.00 | 53 | 1013.0 |
| 20260902203114 | 93 | 180 | 1.7 | 5.2 | 0.00 | 0.00 | 0.00 | 54 | 1013.2 |
| 20260902201537 | 94 | 159 | 0.9 | 3.5 | 0.00 | 0.00 | 0.00 | 56 | 1013.3 |
| 20260902200004 | 93 | 202 | 1.7 | 7.0 | 0.00 | 0.00 | 0.00 | 55 | 1013.3 |
| 20260902194549 | 93 | 202 | 0.0 | 4.3 | 0.00 | 0.00 | 0.00 | 58 | 1013.4 |
| 20260902193002 | 93 | 90 | 1.7 | 5.2 | 0.00 | 0.00 | 0.00 | 55 | 1013.6 |
| 20260902191534 | 93 | 231 | 0.9 | 6.1 | 0.00 | 0.00 | 0.00 | 58 | 1013.7 |
| 20260902190108 | 93 | 207 | 0.9 | 5.2 | 0.00 | 0.00 | 0.00 | 61 | 1013.9 |
| 20260902184536 | 91 | 207 | 0.9 | 3.5 | 0.00 | 0.00 | 0.00 | 61 | 1014.2 |
| 20260902183113 | 92 | 182 | 0.9 | 4.3 | 0.00 | 0.00 | 0.00 | 60 | 1014.3 |
| 20260902181542 | 92 | 176 | 0.9 | 3.5 | 0.00 | 0.00 | 0.00 | 62 | 1014.5 |
| 20260902180111 | 92 | 202 | 1.7 | 4.3 | 0.00 | 0.00 | 0.00 | 61 | 1014.6 |
| 20260902174537 | 91 | 191 | 0.9 | 3.5 | 0.00 | 0.00 | 0.00 | 64 | 1014.7 |
| 20260902173120 | 89 | 210 | 0.9 | 4.3 | 0.00 | 0.00 | 0.00 | 66 | 1014.8 |
| 20260902171539 | 89 | 238 | 0.0 | 2.6 | 0.00 | 0.00 | 0.00 | 67 | 1014.9 |
| 20260902170010 | 89 | 203 | 0.9 | 3.5 | 0.00 | 0.00 | 0.00 | 68 | 1014.9 |
| 20260902164536 | 89 | 197 | 1.7 | 6.1 | 0.00 | 0.00 | 0.00 | 69 | 1015.1 |
| 20260902163106 | 87 | 209 | 0.9 | 3.5 | 0.00 | 0.00 | 0.00 | 71 | 1015.2 |
| 20260902161526 | 88 | 5 | 0.9 | 2.6 | 0.00 | 0.00 | 0.00 | 71 | 1015.2 |
| 20260902160100 | 88 | 237 | 0.0 | 3.5 | 0.00 | 0.00 | 0.00 | 72 | 1015.4 |
| 20260902154528 | 87 | 189 | 0.0 | 4.3 | 0.00 | 0.00 | 0.00 | 72 | 1015.4 |
| 20260902153112 | 86 | 219 | 1.7 | 4.3 | 0.00 | 0.00 | 0.00 | 73 | 1015.6 |
| 20260902151545 | 85 | 209 | 0.9 | 3.5 | 0.00 | 0.00 | 0.00 | 76 | 1015.7 |
| 20260902150013 | 84 | 239 | 0.0 | 2.6 | 0.00 | 0.00 | 0.00 | 79 | 1015.7 |
| 20260902144533 | 82 | 238 | 0.9 | 1.7 | 0.00 | 0.00 | 0.00 | 80 | 1015.8 |
| 20260902141537 | 79 | 239 | 0.9 | 2.6 | 0.00 | 0.00 | 0.00 | 87 | 1015.7 |
| 20260902140013 | 78 | 229 | 0.9 | 3.5 | 0.00 | 0.00 | 0.00 | 88 | 1015.6 |
| 20260902134553 | 77 | 246 | 0.9 | 3.5 | 0.00 | 0.00 | 0.00 | 91 | 1015.5 |
| 20260902133013 | 75 | 271 | 0.9 | 2.6 | 0.00 | 0.00 | 0.00 | 94 | 1015.5 |
| 20260902131546 | 74 | 231 | 0.9 | 4.3 | 0.00 | 0.00 | 0.00 | 95 | 1015.4 |
| 20260902130013 | 74 | 248 | 0.9 | 2.6 | 0.00 | 0.00 | 0.00 | 96 | 1015.5 |
| 20260902124521 | 73 | 248 | 0.9 | 4.3 | 0.00 | 0.00 | 0.00 | 97 | 1015.5 |
| 20260902123056 | 73 | 238 | 0.0 | 1.7 | 0.00 | 0.00 | 0.00 | 97 | 1015.5 |
| 20260902121515 | 72 | 237 | 0.0 | 0.0 | 0.00 | 0.00 | 0.00 | 97 | 1015.5 |
| 20260902120054 | 71 | 237 | 0.0 | 0.0 | 0.00 | 0.00 | 0.00 | 97 | 1015.5 |
| 20260902114514 | 72 | 237 | 0.0 | 0.0 | 0.00 | 0.00 | 0.00 | 97 | 1015.2 |
| 20260902113054 | 71 | 237 | 0.0 | 2.6 | 0.00 | 0.00 | 0.00 | 97 | 1014.8 |
| 20260902111604 | 70 | 239 | 0.0 | 0.0 | 0.00 | 0.00 | 0.00 | 97 | 1014.9 |
| 20260902110038 | 70 | 239 | 0.0 | 0.0 | 0.00 | 0.00 | 0.00 | 97 | 1015.0 |
| 20260902104619 | 70 | 239 | 0.0 | 0.0 | 0.00 | 0.00 | 0.00 | 96 | 1014.8 |
| 20260902103026 | 70 | 239 | 0.0 | 0.0 | 0.00 | 0.00 | 0.00 | 97 | 1014.7 |
| 20260902101603 | 70 | 240 | 0.0 | 2.6 | 0.00 | 0.00 | 0.00 | 97 | 1014.7 |
| 20260902100016 | 70 | 228 | 0.0 | 0.0 | 0.00 | 0.00 | 0.00 | 96 | 1014.7 |
| 20260902094552 | 70 | 226 | 0.0 | 0.0 | 0.00 | 0.00 | 0.00 | 96 | 1014.9 |
| 20260902093045 | 69 | 226 | 0.0 | 0.0 | 0.00 | 0.00 | 0.00 | 97 | 1014.8 |
| 20260902091508 | 69 | 226 | 0.0 | 0.0 | 0.00 | 0.00 | 0.00 | 96 | 1015.0 |
| 20260902090052 | 69 | 226 | 0.0 | 0.0 | 0.00 | 0.00 | 0.00 | 96 | 1015.0 |
| 20260902084521 | 68 | 226 | 0.0 | 0.0 | 0.00 | 0.00 | 0.00 | 96 | 1014.9 |
| 20260902083054 | 68 | 226 | 0.0 | 0.0 | 0.00 | 0.00 | 0.00 | 95 | 1014.8 |
| 20260902081514 | 69 | 226 | 0.0 | 0.0 | 0.00 | 0.00 | 0.00 | 95 | 1014.9 |
| 20260902080054 | 69 | 226 | 0.0 | 0.0 | 0.00 | 0.00 | 0.00 | 95 | 1015.0 |
| 20260902074525 | 69 | 226 | 0.0 | 0.0 | 0.00 | 0.00 | 0.00 | 95 | 1015.1 |
| 20260902073108 | 69 | 226 | 0.0 | 0.0 | 0.00 | 0.00 | 0.00 | 95 | 1015.0 |
| 20260902071525 | 69 | 226 | 0.0 | 0.0 | 0.00 | 0.00 | 0.00 | 94 | 1015.0 |
| 20260902070058 | 69 | 226 | 0.0 | 0.0 | 0.00 | 0.00 | 0.00 | 94 | 1015.1 |
| 20260902064527 | 70 | 226 | 0.0 | 0.0 | 0.00 | 0.00 | 0.00 | 94 | 1015.0 |
| 20260902063110 | 70 | 226 | 0.0 | 0.0 | 0.00 | 0.00 | 0.00 | 93 | 1015.1 |
| 20260902061528 | 70 | 226 | 0.0 | 0.0 | 0.00 | 0.00 | 0.00 | 93 | 1015.1 |
| 20260902060109 | 71 | 226 | 0.0 | 0.0 | 0.00 | 0.00 | 0.00 | 92 | 1014.9 |
| 20260902054534 | 71 | 226 | 0.0 | 0.0 | 0.00 | 0.00 | 0.00 | 91 | 1014.9 |
| 20260902053107 | 72 | 226 | 0.0 | 0.0 | 0.00 | 0.00 | 0.00 | 91 | 1014.9 |
| 20260902051531 | 72 | 226 | 0.0 | 0.0 | 0.00 | 0.00 | 0.00 | 90 | 1014.8 |
| 20260902050111 | 73 | 226 | 0.0 | 0.0 | 0.00 | 0.00 | 0.00 | 89 | 1014.7 |
| 20260902044558 | 73 | 226 | 0.0 | 0.0 | 0.00 | 0.00 | 0.00 | 88 | 1014.6 |
| 20260902043100 | 74 | 226 | 0.0 | 0.9 | 0.00 | 0.00 | 0.00 | 88 | 1014.6 |
| 20260902041534 | 74 | 225 | 0.0 | 0.0 | 0.00 | 0.00 | 0.00 | 88 | 1014.6 |
| 20260902040058 | 74 | 225 | 0.0 | 0.0 | 0.00 | 0.00 | 0.00 | 87 | 1014.5 |
| 20260902034605 | 74 | 225 | 0.0 | 0.0 | 0.00 | 0.00 | 0.00 | 87 | 1014.5 |
| 20260902033006 | 75 | 223 | 0.0 | 2.6 | 0.00 | 0.00 | 0.00 | 86 | 1014.5 |
| 20260902031557 | 75 | 254 | 0.0 | 3.5 | 0.00 | 0.00 | 0.00 | 86 | 1014.3 |
| 20260902030016 | 75 | 257 | 0.0 | 1.7 | 0.00 | 0.00 | 0.00 | 85 | 1014.4 |
| 20260902024552 | 76 | 157 | 0.0 | 0.9 | 0.00 | 0.00 | 0.00 | 84 | 1014.6 |
| 20260902023020 | 76 | 157 | 0.0 | 0.9 | 0.00 | 0.00 | 0.00 | 84 | 1014.5 |
| 20260902021524 | 77 | 157 | 0.0 | 0.0 | 0.00 | 0.00 | 0.00 | 82 | 1014.3 |
| 20260902020108 | 77 | 157 | 0.0 | 2.6 | 0.00 | 0.00 | 0.00 | 82 | 1014.3 |
| 20260902014514 | 77 | 156 | 0.0 | 1.7 | 0.00 | 0.00 | 0.00 | 81 | 1014.3 |
| 20260902013051 | 78 | 186 | 0.0 | 0.0 | 0.00 | 0.00 | 0.00 | 80 | 1014.0 |
| 20260902011527 | 78 | 186 | 0.0 | 0.0 | 0.00 | 0.00 | 0.00 | 79 | 1014.0 |
| 20260902004537 | 80 | 186 | 0.9 | 5.2 | 0.00 | 0.00 | 0.00 | 76 | 1013.7 |
| 20260902003002 | 80 | 244 | 0.0 | 0.0 | 0.00 | 0.00 | 0.00 | 77 | 1013.7 |
| 20260902001540 | 81 | 244 | 0.0 | 1.7 | 0.00 | 0.00 | 0.00 | 75 | 1013.6 |
| 20260902000021 | 82 | 245 | 0.9 | 5.2 | 0.00 | 0.00 | 0.00 | 73 | 1013.9 |
| 20260901234602 | 82 | 224 | 0.9 | 2.6 | 0.00 | 0.00 | 0.00 | 73 | 1013.9 |
| 20260901233013 | 83 | 191 | 0.0 | 3.5 | 0.00 | 0.00 | 0.00 | 72 | 1014.0 |